Regional Weather Roundup
Issued by NWS

Home | Current Version | Previous Version | Graphics & Text | Print | Product List | Glossary On
Versions: 1 2 3 4 5 6 7 8 9 10 11 12 13 14 15 16 17 18 19 20 21 22 23 24 25 26 27 28 29 30 31 32 33 34 35 36 37 38 39 40 41 42 43 44 45 46 47 48 49 50
000
ASUS43 KLSX 271907
RWRMO

WEATHER SUMMARY FOR MISSOURI
NATIONAL WEATHER SERVICE SPRINGFIELD MO
200 PM CDT WED MAY 27 2015

NOTE: "FAIR" INDICATES FEW OR NO CLOUDS BELOW 12,000 FEET WITH NO
       SIGNIFICANT WEATHER AND/OR OBSTRUCTIONS TO VISIBILITY.
       CURRENT SKY AND/OR WEATHER CONDITIONS ARE NOT AVAILABLE FOR
       CHILLICOTHE AND FARMINGTON.

MOZ001>031-035>038-043-044-053-054-272000-
...NORTHERN AND WESTERN MISSOURI...

CITY           SKY/WX    TMP DP  RH WIND       PRES   REMARKS
KANSAS CTY INT SUNNY     79  54  41 CALM      30.10S
KANSAS C DTWN  MOSUNNY   82  49  31 CALM      30.08F
LEE`S SUMMIT   MOSUNNY   81  51  35 NE3       30.10F
ST JOSEPH      SUNNY     81  50  33 VRB3      30.09S
KIRKSVILLE     SUNNY     78  58  49 W8        30.09S

$$
MOZ066>068-077>081-088>096-101>105-272000-
...SOUTHWEST MISSOURI...

CITY           SKY/WX    TMP DP  RH WIND       PRES   REMARKS
SPRINGFIELD    MOSUNNY   80  64  58 VRB5      30.11S
JOPLIN         MOSUNNY   80  66  62 SE5       30.10F

$$
MOZ032>034-039>042-045>050-055>058-069>072-272000-
...CENTRAL MISSOURI...

CITY           SKY/WX    TMP DP  RH WIND       PRES   REMARKS
COLUMBIA       SUNNY     80  58  46 N8        30.09F
JEFFERSON CITY SUNNY     80  52  37 NW10      30.08S
ROLLA          MOSUNNY   78  63  59 NW8       30.09S
SEDALIA        SUNNY     79  56  45 VRB6      30.12S
WHITEMAN AFB   MOSUNNY   78  56  46 SW3       30.09F

$$
MOZ051-052-059>065-272000-
...EAST CENTRAL MISSOURI...

CITY           SKY/WX    TMP DP  RH WIND       PRES   REMARKS
ST LOUIS INTL  MOSUNNY   83  62  49 W13       30.06S
SPIRIT OF STL  MOSUNNY   81  63  54 W6        30.05S
ST CHARLES     MOSUNNY   81  59  47 W13       30.05S

$$
MOZ072>076-082>087-097>100-106>115-272000-
...SOUTH CENTRAL AND SOUTHEAST MISSOURI...

CITY           SKY/WX    TMP DP  RH WIND       PRES   REMARKS
CAPE GIRARDEAU CLOUDY    77  67  71 S10       30.10R
FARMINGTON     MOSUNNY   79  64  61 SW9       30.13S
POPLAR BLUFF   PTSUNNY   78  68  71 SW7       30.10S
WEST PLAINS    MOSUNNY   81  64  56 W6        30.12F

$$


USA.gov is the U.S. government's official web portal to all federal, state and local government web resources and services.